Notices

What's New in latest Release from April 7th, 2021:

- Updated Glossary, including Speed of Maximum Gust, and Total Hourly Precipitation

- Updated national and regional climate services offices contacts and prices information

- Addition of station inventory lists for 1981-2010, 1971-2000, and 1961-1990 Normals.

If you haven't already, please take our survey and provide feedback about our website: https://eccc.sondage-survey.ca/f/LanguageSelection.aspx?s=442ca660-fcf1-47c0-95a9-59707d6fd709

Hourly Data Report for December 11, 2020

SHEARWATER RCS
NOVA SCOTIA
Current Station Operator: ECCC - MSC

44°37'47.000" N
63°30'48.000" W
24.00 m
8205092
71264
AAW

Download Data

Hourly Data (December 2020)
Hourly Data Report for December 11, 2020
TIME
LST
Temp Definition
°C
Dew Point Definition
°C
Rel Hum Definition
%
Precip. Amount Definition
mm

Wind Dir Definition
10's deg

Wind Spd Definition
km/h
Visibility Definition
km
Stn Press Definition
kPa
Hmdx Definition


Wind Chill Definition


Weather Definition


00:00 -0.2 -4.1 75 0.0 31 13   101.08   -4 LegendNANA
01:00 0.1 -3.8 75 0.0 31 16   101.16     LegendNANA
02:00 0.2 -3.8 74 0.0 30 22   101.23     LegendNANA
03:00 0.0 -4.0 74 0.0 31 22   101.35   -6 LegendNANA
04:00 -0.4 -4.4 74 0.0 32 20   101.42   -6 LegendNANA
05:00 -0.5 -4.8 73 0.0 31 12   101.48   -4 LegendNANA
06:00 -0.4 -4.7 72 0.0 31 15   101.57   -5 LegendNANA
07:00 -0.1 -4.7 71 0.0 32 15   101.63   -5 LegendNANA
08:00 0.1 -4.5 71 0.0 29 12   101.69     LegendNANA
09:00 0.3 -4.0 73 0.0 28 13   101.77     LegendNANA
10:00 0.8 -3.6 73 0.0 30 11   101.79     LegendNANA
11:00 1.3 -3.7 70 0.0 29 12   101.81     LegendNANA
12:00 2.0 -3.2 68 0.0 29 12   101.76     LegendNANA
13:00 2.9 -2.8 66 0.0 30 10   101.73     LegendNANA
14:00 4.1 -2.8 61 0.0 27 11   101.70     LegendNANA
15:00 3.3 -3.0 63 0.0 27 13   101.72     LegendNANA
16:00 3.4 -3.0 63 0.0 26 11   101.73     LegendNANA
17:00 3.3 -2.8 64 0.0 28 9   101.79     LegendNANA
18:00 3.2 -2.2 68 0.0 25 8   101.84     LegendNANA
19:00 3.0 -1.9 70 0.0 24 4   101.88     LegendNANA
20:00 3.0 -1.7 72 0.0 22 4   101.89     LegendNANA
21:00 2.3 -1.4 77 0.0 18 3   101.85     LegendNANA
22:00 2.7 -0.4 80 0.0 16 3   101.82     LegendNANA
23:00 3.6 0.7 81 0.0 20 3   101.77     LegendNANA

Notes on Data Quality.

Legend

  • E = Estimated
  • M = Missing
  • NA = Not Available*
  • [empty] = Indicates an unobserved value
Date modified: